カタログに戻る

STARLINK-11582

運用中通信VLEO
NORAD 62985·PAYLOAD·🇺🇸 United States

打ち上げ Feb 11, 2025 から Cape Canaveral Space Force Station

Loading…

次のパス (今後24時間)

TLE

最新Source: CelesTrak SupGP

元期: Sep 15, 2026, 03:19 UTC

1 62985C 25031E   26258.13868056  .00066906  00000+0  51970-3 0  2580
2 62985  43.0003 299.5494 0001617 243.3455 256.6646 15.70803760    18

AllMySatでSTARLINK-11582をリアルタイム追跡

Download on the App Store